Wind_Speed
9 7 5 5 8 10 12 13 14 14 13 13 12 12 12 12 11 11 11 9 7 6 5 4 3 2 2 3 4 4 4 4 4 3 3 3 1 2 4 7 9 11 12
11 8 7 8 9 11 11 11 12 12 13 13 11 10 10 9 8 8 7 7 6 4 3 2 0 1 2 3 3 5 5 4 3 2 2 2 2 3 5 6 8 9 11
11 6 5 5 8 10 10 9 9 10 13 14 13 10 8 7 6 6 5 4 3 3 3 2 2 4 5 5 3 4 4 4 4 2 2 3 4 5 6 5 7 11 11
12 8 7 7 8 10 12 9 10 7 7 9 11 10 8 8 6 4 3 2 2 2 3 4 4 6 6 7 6 5 5 5 5 4 4 5 6 6 8 7 9 11 12
12 9 8 10 9 12 13 9 10 8 9 9 8 7 7 5 5 4 2 2 1 3 5 6 6 7 7 8 8 8 7 7 7 6 6 8 9 9 9 10 10 11 14
13 11 11 14 14 15 15 12 11 9 9 8 7 7 7 4 3 2 1 1 2 4 5 6 7 9 9 10 10 10 10 9 10 9 9 9 11 11 11 11 13 13 16
13 13 14 16 16 17 15 15 12 11 9 8 8 7 7 6 5 4 4 4 4 5 6 8 9 10 11 11 12 12 13 12 12 12 11 11 12 13 13 15 16 14 17
14 13 13 14 16 14 14 13 12 11 11 9 8 7 6 5 5 5 5 5 5 5 6 8 9 11 13 13 13 14 14 15 15 15 14 14 14 14 16 11 15 16 19
15 14 15 15 14 13 14 13 13 11 10 9 8 7 6 6 6 6 5 7 7 6 6 7 8 10 12 12 15 16 17 17 18 19 18 17 16 16 16 17 16 20 22
16 14 13 13 12 12 12 14 14 13 12 12 11 10 9 8 8 8 8 9 9 9 9 10 11 10 9 12 14 17 18 18 21 21 22 22 19 18 18 19 20 22 25
16 14 13 12 11 12 12 13 12 13 12 11 11 11 10 11 11 11 12 13 11 11 11 13 14 16 16 14 13 15 15 16 18 22 25 25 22 21 20 21 20 19 22
15 15 13 12 12 11 12 12 12 12 11 12 12 12 13 13 14 14 13 14 15 16 15 15 14 16 17 18 19 18 17 15 14 16 21 24 24 25 23 21 20 21 24
14 14 13 12 11 11 11 11 10 10 11 12 13 15 15 15 14 16 18 17 18 19 19 19 18 17 18 19 19 21 22 20 20 19 17 18 20 21 22 22 22 23 26
14 14 13 12 11 11 10 9 10 10 11 12 14 15 17 19 20 20 19 21 22 22 22 22 23 21 20 19 20 21 22 22 23 24 24 22 18 18 21 21 23 23 24
16 14 13 11 11 10 9 9 10 10 11 12 14 17 18 19 20 21 22 22 23 24 24 24 23 23 23 22 21 21 23 24 25 26 28 27 25 22 21 23 22 23 26
14 13 12 11 10 8 10 10 11 11 12 13 15 17 17 19 20 20 21 23 24 25 25 24 23 22 24 23 24 23 23 24 26 27 28 30 30 28 25 23 23 22 25
14 13 11 11 9 8 10 10 11 12 12 14 15 16 18 20 20 21 21 23 25 25 24 25 24 23 22 21 24 25 26 23 23 25 27 29 31 32 30 28 27 24 25
13 11 10 9 9 9 9 10 10 11 13 15 16 17 18 19 21 21 22 23 24 24 23 21 20 22 21 20 22 24 25 27 27 25 25 27 27 29 32 29 26 28 27
13 12 11 9 9 9 9 10 11 12 14 15 16 18 19 20 21 21 22 22 23 24 22 22 22 19 22 22 22 23 26 26 27 22 20 21 22 23 25 28 28 25 22
14 12 11 10 10 10 11 12 13 15 16 16 17 18 19 20 21 23 22 23 24 23 21 22 22 22 20 21 26 22 26 23 14 12 15 12 14 13 16 20 24 27 28
13 12 10 9 9 7 7 8 11 16 15 16 16 17 20 19 19 22 24 24 23 20 21 22 21 22 20 22 16 24 16 11 10 19 13 12 14 16 13 14 12 14 18
14 12 12 11 10 8 7 8 7 9 13 13 13 15 18 19 19 18 22 24 20 19 20 21 22 20 16 23 14 16 5 4 17 28 15 9 21 18 22 18 16 16 13
14 13 13 11 11 10 9 9 9 7 8 10 13 13 16 17 18 19 20 21 20 19 19 19 20 19 17 18 21 6 4 4 12 9 21 21 21 21 21 24 23 24 17
15 14 13 12 11 10 8 9 9 10 7 9 9 10 11 14 16 17 17 19 18 18 18 17 16 17 17 16 15 16 11 12 3 5 9 21 20 27 24 21 21 17 16
16 14 12 12 13 11 8 9 10 12 10 8 9 10 12 14 15 16 17 18 19 18 19 20 20 18 16 14 15 17 15 17 7 4 5 9 22 23 22 19 15 14 15
16 15 12 12 13 11 9 10 11 12 10 11 12 13 14 16 17 17 17 18 19 19 19 20 20 20 20 16 17 16 13 7 13 8 5 9 11 17 23 7 14 15 16
Wind_Direction
125 133 104 87 87 101 89 91 92 95 99 102 103 106 112 119 123 127 127 125 122 118 115 109 99 93 59 11 2 0 2 7 17 47 73 95 160 155 160 163 164 165 158
140 131 109 79 62 78 100 87 82 86 94 97 99 104 110 116 122 123 123 127 127 120 129 125 73 336 335 339 349 338 340 344 347 15 135 155 180 173 174 167 174 177 167
112 113 103 118 109 102 85 91 89 85 84 86 87 91 93 105 122 129 134 138 149 175 199 240 284 308 312 309 314 315 319 313 308 289 232 211 204 191 191 199 199 193 185
108 119 106 82 82 106 108 85 90 88 86 84 87 87 91 100 119 123 141 159 217 262 272 278 291 297 301 302 300 292 293 292 286 272 243 228 215 211 208 203 209 206 207
99 99 93 82 81 90 89 92 83 72 76 75 74 72 74 89 102 108 135 165 218 287 289 290 286 278 277 283 290 284 275 280 282 271 254 241 236 241 236 220 217 219 211
113 108 103 84 80 84 84 85 88 77 79 76 73 68 65 57 54 53 23 359 278 280 283 283 287 284 282 281 281 282 281 276 275 272 263 252 245 242 242 234 234 230 217
120 107 104 96 84 84 87 84 87 76 74 71 70 72 64 47 37 20 358 342 322 315 299 287 279 275 276 278 281 281 280 277 276 274 269 262 258 252 251 254 238 232 225
113 114 103 99 94 100 95 92 84 75 70 68 63 60 54 34 26 20 4 350 334 325 321 302 285 278 272 271 273 276 276 276 275 271 267 262 260 258 252 250 242 239 233
114 112 109 103 105 101 91 86 77 69 67 63 56 51 41 22 9 0 344 347 346 325 307 303 299 297 285 284 273 272 272 271 273 271 267 263 258 258 256 251 244 254 244
108 107 109 111 105 96 86 74 69 63 59 55 51 49 41 25 22 12 360 354 336 324 312 293 291 289 290 283 280 270 267 266 266 269 270 267 266 262 258 258 251 263 244
98 97 102 96 87 82 77 72 66 60 53 50 44 36 33 22 14 10 5 356 346 335 320 308 305 296 290 291 285 275 275 274 275 272 272 269 269 267 263 260 255 257 240
98 90 85 84 77 77 77 68 60 57 51 46 38 29 25 20 11 3 357 349 345 337 331 322 310 304 301 298 295 286 283 276 273 281 279 279 275 271 270 265 258 250 244
106 95 89 90 89 83 77 70 69 58 46 36 29 23 18 11 5 360 354 349 343 339 334 329 321 313 309 306 300 295 290 285 277 271 271 280 280 277 272 267 265 254 250
103 86 81 76 74 73 79 76 63 49 39 33 25 15 11 8 2 360 356 350 347 343 338 335 331 325 314 307 304 300 294 289 282 275 270 264 269 273 270 266 261 260 252
106 96 89 89 88 89 88 76 67 59 46 34 23 14 8 5 1 357 355 353 351 348 346 340 334 330 325 318 306 300 297 293 286 280 274 267 264 263 267 269 262 256 256
112 103 100 96 93 92 79 70 63 53 42 29 21 16 10 9 8 4 1 357 355 353 348 344 341 334 326 323 317 311 302 297 294 288 281 274 265 261 258 263 268 262 255
117 113 102 97 93 87 82 75 65 53 37 32 30 24 21 17 13 8 5 1 358 358 355 351 348 342 337 328 319 319 316 310 299 292 285 279 273 266 262 259 263 267 263
130 121 110 103 95 88 83 77 69 60 50 45 38 35 31 23 18 17 12 8 3 2 3 0 353 343 337 328 320 317 316 311 304 298 296 288 281 276 267 262 264 269 271
132 125 117 112 104 101 95 84 77 70 62 57 51 45 36 35 29 24 21 14 9 8 6 0 349 349 336 330 324 315 307 306 306 302 299 296 289 281 278 271 264 265 271
134 125 119 116 114 113 103 92 84 76 67 60 52 45 39 34 32 28 28 21 16 14 6 1 354 346 334 330 325 315 310 311 309 333 337 327 320 320 301 282 274 268 268
122 118 108 110 119 134 119 95 84 76 70 63 56 46 39 33 32 28 29 24 21 13 6 5 357 348 342 345 330 333 327 341 34 6 25 29 34 355 358 1 336 306 294
125 118 111 101 105 108 112 119 101 89 70 64 56 47 37 35 33 30 29 25 17 11 8 6 3 357 343 352 340 307 343 332 345 332 354 2 355 7 359 353 350 352 353
139 132 121 112 106 106 111 112 113 97 81 55 45 42 37 32 31 31 30 26 26 27 10 6 5 7 350 346 352 337 345 334 338 318 340 340 354 349 349 341 346 348 336
150 137 126 122 111 105 107 112 103 93 86 52 40 34 31 31 32 31 30 29 26 29 21 13 6 9 6 355 359 347 328 299 314 316 336 319 327 327 328 333 341 342 345
151 143 134 124 111 111 115 106 95 85 80 76 62 50 39 37 33 33 30 30 30 31 23 23 21 13 12 4 0 348 335 320 304 308 315 331 327 317 325 335 333 351 355
155 146 148 129 120 112 110 99 90 91 90 78 62 55 46 42 36 36 36 37 34 32 31 27 30 31 25 18 7 6 349 335 328 325 314 319 304 306 327 28 31 20 16
Height
799 800 800 801 799 797 796 796 798 799 798 799 799 800 802 803 804 805 806 807 809 810 810 811 811 810 811 811 811 810 809 808 808 807 808 808 809 809 808 808 808 809 809
798 800 799 800 800 798 795 797 799 801 801 800 801 802 803 804 806 805 806 807 808 809 810 810 811 810 810 810 809 811 810 809 808 808 808 808 809 809 809 809 809 811 809
799 801 801 799 798 796 797 798 800 803 803 802 802 804 804 804 806 806 807 808 808 809 809 809 809 809 810 809 808 809 809 809 809 809 809 809 808 808 809 809 809 810 810
797 800 799 800 799 797 792 800 800 803 803 802 802 803 805 805 806 806 807 808 809 809 809 808 808 809 808 809 809 808 808 808 808 808 808 808 809 808 809 809 810 810 811
798 799 798 799 801 796 794 801 801 805 804 803 803 803 803 804 805 805 806 806 807 807 808 807 807 807 807 807 808 808 807 807 807 807 807 807 808 808 808 808 809 809 810
797 799 798 798 799 795 796 801 802 806 804 803 803 803 803 804 805 804 805 805 805 806 806 806 806 806 805 805 806 806 806 805 805 805 806 805 806 807 808 807 807 807 808
801 801 799 800 799 797 799 804 805 806 804 804 804 803 803 804 804 805 805 805 804 804 804 805 804 804 804 803 803 804 804 804 803 802 803 803 804 805 806 806 807 806 807
801 801 800 801 800 802 805 805 805 805 805 805 804 803 803 804 804 804 805 805 804 803 803 803 802 802 802 801 801 801 801 801 800 799 799 800 801 802 802 804 805 805 806
801 803 804 805 807 806 806 806 806 804 805 805 804 804 805 805 805 805 805 804 803 803 801 802 801 801 800 799 798 798 798 797 797 796 796 796 797 799 800 801 802 803 804
802 804 806 807 807 806 805 805 805 805 806 806 806 805 805 806 805 805 805 803 802 802 800 800 799 798 798 797 796 795 794 793 793 792 793 793 794 795 796 796 798 799 800
804 806 807 807 807 806 806 806 807 807 808 807 806 807 805 806 805 804 803 804 802 800 799 797 796 796 796 795 793 792 791 791 790 789 789 789 790 791 792 792 793 794 795
805 806 807 807 806 806 806 808 809 810 810 809 809 808 806 803 805 804 802 801 801 799 798 796 793 792 792 791 790 788 788 787 786 785 784 785 786 787 787 788 789 790 791
805 806 806 805 805 807 808 810 810 810 811 811 810 808 807 805 804 802 802 799 798 797 794 793 791 789 787 787 786 785 784 782 782 781 780 781 781 782 782 783 784 785 786
808 809 809 810 810 811 811 810 812 812 812 810 808 807 805 804 804 801 799 799 797 794 792 790 788 786 784 782 781 780 779 778 777 776 776 775 776 776 777 777 778 779 781
809 810 810 811 811 812 811 812 811 810 810 810 808 807 806 804 803 800 799 797 795 794 790 787 785 783 781 778 776 774 773 772 772 771 770 769 770 770 771 771 772 773 774
811 811 812 812 812 813 812 813 814 813 812 811 809 807 805 805 803 800 798 796 793 791 789 786 783 779 778 776 774 771 768 766 765 765 764 763 763 764 765 765 766 766 768
812 814 814 814 814 814 813 813 814 814 814 812 810 809 808 806 803 801 798 794 792 790 787 784 781 778 775 773 771 768 765 761 758 758 758 757 756 756 757 758 759 760 761
813 814 815 815 815 814 814 814 813 813 813 813 812 811 808 807 805 802 799 796 793 790 786 784 782 780 777 773 769 766 762 758 753 750 750 751 750 750 749 750 752 753 755
813 815 816 816 815 814 815 815 815 814 813 813 812 810 810 806 806 803 800 798 794 790 788 786 783 780 776 772 768 764 759 753 749 746 743 744 744 744 743 743 745 747 748
813 815 816 816 815 816 817 817 816 815 815 815 814 812 809 809 806 804 801 798 795 791 789 787 784 782 777 772 766 760 754 748 745 745 741 738 741 740 740 739 739 740 741
815 816 817 818 818 817 817 818 817 816 815 814 813 815 812 811 808 806 802 798 795 793 790 788 786 781 776 773 764 758 750 745 746 742 741 738 737 741 738 736 735 735 735
817 818 817 819 819 818 818 818 819 819 818 817 816 817 815 811 810 807 803 800 798 796 792 790 787 783 778 776 772 762 752 748 744 744 740 743 737 737 738 735 734 732 731
818 817 816 818 818 819 820 819 819 819 819 820 819 817 815 814 812 809 807 803 800 797 795 793 790 785 782 778 775 774 763 758 757 743 740 741 739 738 735 734 732 730 728
817 818 817 818 817 819 820 820 820 818 818 820 820 820 818 815 813 811 809 805 803 800 797 795 792 789 784 784 775 777 776 771 763 749 743 742 739 736 734 732 731 728 726
817 818 820 818 816 819 821 820 818 817 820 820 821 820 820 818 816 812 810 808 803 802 799 794 793 789 790 786 783 777 773 767 764 762 748 746 742 736 732 731 729 726 724
818 819 822 819 820 820 823 820 819 818 822 819 820 820 821 818 818 814 811 808 805 801 799 796 795 792 789 786 784 777 778 774 768 768 759 750 750 734 731 731 728 726 725